• In Uzbekistan
  • List of Countries
  • For 7 days
  • Water Temperature
  • Satellite Maps
  • Weather Map
  • Weather Widgets
  • user-avatar
    Login

    Hourly Weather Nuwejba

    Today, 20 July, Friday

    Time Temperature Precipitation Wind Pressure Humidity
    00:00 +29°C° 0 mm 2 mps 689 mmHg 42%
    01:00 +28°C° 0 mm 2 mps 689 mmHg 46%
    02:00 +28°C° 0 mm 2 mps 689 mmHg 51%
    03:00 +27°C° 0 mm 2 mps 689 mmHg 54%
    04:00 +26°C° 0 mm 2 mps 689 mmHg 58%
    05:00 +26°C° 0 mm 2 mps 689 mmHg 61%
    06:00 +27°C° 0 mm 2 mps 689 mmHg 56%
    07:00 +28°C° 0 mm 2 mps 689 mmHg 51%
    08:00 +29°C° 0 mm 2 mps 689 mmHg 46%
    09:00 +30°C° 0 mm 3 mps 689 mmHg 40%
    10:00 +31°C° 0 mm 3 mps 690 mmHg 34%
    11:00 +34°C° 0 mm 3 mps 690 mmHg 28%
    12:00 +35°C° 0 mm 3 mps 690 mmHg 26%
    13:00 +36°C° 0 mm 3 mps 689 mmHg 24%
    14:00 +35°C° 0 mm 4 mps 689 mmHg 28%
    15:00 +35°C° 0 mm 4 mps 689 mmHg 27%
    16:00 +35°C° 0 mm 4 mps 689 mmHg 26%
    17:00 +35°C° 0 mm 4 mps 689 mmHg 25%
    18:00 +34°C° 0 mm 4 mps 689 mmHg 27%
    19:00 +33°C° 0 mm 4 mps 689 mmHg 30%
    20:00 +30°C° 0 mm 4 mps 689 mmHg 32%
    21:00 +29°C° 0 mm 4 mps 689 mmHg 36%
    22:00 +28°C° 0 mm 4 mps 689 mmHg 40%
    23:00 +27°C° 0 mm 4 mps 689 mmHg 44%

    Tomorrow, 21 July, Saturday

    Time Temperature Precipitation Wind Pressure Humidity
    00:00 +27°C° 0 mm 4 mps 689 mmHg 46%
    01:00 +26°C° 0 mm 3 mps 689 mmHg 48%
    02:00 +25°C° 0 mm 3 mps 689 mmHg 51%
    03:00 +25°C° 0 mm 3 mps 689 mmHg 51%
    04:00 +24°C° 0 mm 2 mps 689 mmHg 52%
    05:00 +24°C° 0 mm 2 mps 688 mmHg 53%
    06:00 +25°C° 0 mm 2 mps 689 mmHg 46%
    07:00 +26°C° 0 mm 3 mps 689 mmHg 40%
    08:00 +27°C° 0 mm 3 mps 689 mmHg 33%
    09:00 +28°C° 0 mm 3 mps 689 mmHg 29%
    10:00 +30°C° 0 mm 3 mps 690 mmHg 25%
    11:00 +32°C° 0 mm 4 mps 690 mmHg 21%
    12:00 +33°C° 0 mm 4 mps 690 mmHg 20%
    13:00 +34°C° 0 mm 4 mps 689 mmHg 18%
    14:00 +35°C° 0 mm 4 mps 689 mmHg 17%
    15:00 +35°C° 0 mm 4 mps 689 mmHg 18%
    16:00 +34°C° 0 mm 4 mps 689 mmHg 18%
    17:00 +34°C° 0 mm 4 mps 688 mmHg 19%
    18:00 +33°C° 0 mm 4 mps 688 mmHg 22%
    19:00 +32°C° 0 mm 4 mps 689 mmHg 24%
    20:00 +30°C° 0 mm 4 mps 689 mmHg 27%
    21:00 +29°C° 0 mm 3 mps 689 mmHg 31%
    22:00 +29°C° 0 mm 3 mps 689 mmHg 35%
    23:00 +28°C° 0 mm 3 mps 689 mmHg 39%

    Day after tomorrow, 22 July, Sunday

    Time Temperature Precipitation Wind Pressure Humidity
    00:00 +27°C° 0 mm 3 mps 689 mmHg 43%
    01:00 +26°C° 0 mm 3 mps 689 mmHg 47%
    02:00 +26°C° 0 mm 2 mps 688 mmHg 51%
    03:00 +25°C° 0 mm 2 mps 688 mmHg 54%
    04:00 +25°C° 0 mm 2 mps 688 mmHg 57%
    05:00 +24°C° 0 mm 2 mps 688 mmHg 61%
    06:00 +25°C° 0 mm 2 mps 688 mmHg 57%
    07:00 +26°C° 0 mm 3 mps 689 mmHg 54%
    08:00 +27°C° 0 mm 3 mps 689 mmHg 51%
    09:00 +28°C° 0 mm 3 mps 689 mmHg 45%
    10:00 +29°C° 0 mm 4 mps 689 mmHg 38%
    11:00 +32°C° 0 mm 4 mps 689 mmHg 32%
    12:00 +32°C° 0 mm 4 mps 689 mmHg 29%
    13:00 +33°C° 0 mm 4 mps 689 mmHg 27%
    14:00 +34°C° 0 mm 4 mps 688 mmHg 24%
    15:00 +34°C° 0 mm 5 mps 688 mmHg 24%
    16:00 +34°C° 0 mm 5 mps 688 mmHg 24%
    17:00 +34°C° 0 mm 5 mps 687 mmHg 24%
    18:00 +33°C° 0 mm 5 mps 688 mmHg 27%
    19:00 +32°C° 0 mm 4 mps 688 mmHg 31%
    20:00 +30°C° 0 mm 4 mps 688 mmHg 34%
    21:00 +30°C° 0 mm 4 mps 688 mmHg 38%
    22:00 +29°C° 0 mm 3 mps 688 mmHg 42%
    23:00 +28°C° 0 mm 3 mps 688 mmHg 46%

    23 July, Monday

    Time Temperature Precipitation Wind Pressure Humidity
    00:00 +28°C° 0 mm 2 mps 688 mmHg 48%
    01:00 +27°C° 0 mm 2 mps 688 mmHg 50%
    02:00 +27°C° 0 mm 2 mps 687 mmHg 52%
    03:00 +26°C° 0 mm 2 mps 687 mmHg 53%
    04:00 +26°C° 0 mm 2 mps 687 mmHg 54%
    05:00 +25°C° 0 mm 2 mps 687 mmHg 55%
    06:00 +26°C° 0 mm 2 mps 688 mmHg 50%
    07:00 +27°C° 0 mm 2 mps 688 mmHg 45%
    08:00 +28°C° 0 mm 2 mps 688 mmHg 39%
    09:00 +30°C° 0 mm 3 mps 688 mmHg 35%
    10:00 +31°C° 0 mm 3 mps 689 mmHg 31%
    11:00 +34°C° 0 mm 3 mps 689 mmHg 27%
    12:00 +34°C° 0 mm 3 mps 688 mmHg 26%
    13:00 +35°C° 0 mm 3 mps 688 mmHg 24%
    14:00 +36°C° 0 mm 3 mps 688 mmHg 22%
    15:00 +36°C° 0 mm 3 mps 688 mmHg 22%
    16:00 +36°C° 0 mm 3 mps 687 mmHg 22%
    17:00 +36°C° 0 mm 3 mps 687 mmHg 22%
    18:00 +35°C° 0 mm 3 mps 687 mmHg 24%
    19:00 +34°C° 0 mm 3 mps 688 mmHg 25%
    20:00 +32°C° 0 mm 2 mps 688 mmHg 27%
    21:00 +31°C° 0 mm 2 mps 688 mmHg 29%
    22:00 +31°C° 0 mm 2 mps 688 mmHg 31%
    23:00 +30°C° 0 mm 2 mps 688 mmHg 34%

    24 July, Tuesday

    Time Temperature Precipitation Wind Pressure Humidity
    00:00 +29°C° 0 mm 2 mps 688 mmHg 36%
    01:00 +29°C° 0 mm 2 mps 687 mmHg 39%
    02:00 +28°C° 0 mm 1 mps 687 mmHg 42%
    03:00 +27°C° 0 mm 1 mps 687 mmHg 43%
    04:00 +27°C° 0 mm 1 mps 687 mmHg 44%
    05:00 +26°C° 0 mm 1 mps 687 mmHg 45%
    06:00 +28°C° 0 mm 1 mps 688 mmHg 40%
    07:00 +29°C° 0 mm 1 mps 688 mmHg 35%
    08:00 +30°C° 0 mm 2 mps 689 mmHg 30%
    09:00 +32°C° 0 mm 2 mps 689 mmHg 26%
    10:00 +34°C° 0 mm 2 mps 689 mmHg 22%
    11:00 +35°C° 0 mm 2 mps 689 mmHg 18%
    12:00 +36°C° 0 mm 2 mps 689 mmHg 17%
    13:00 +37°C° 0 mm 2 mps 689 mmHg 16%
    14:00 +38°C° 0 mm 3 mps 688 mmHg 15%
    15:00 +37°C° 0 mm 3 mps 688 mmHg 15%
    16:00 +37°C° 0 mm 3 mps 688 mmHg 15%
    17:00 +37°C° 0 mm 3 mps 688 mmHg 15%
    18:00 +36°C° 0 mm 3 mps 688 mmHg 17%
    19:00 +35°C° 0 mm 2 mps 689 mmHg 19%
    20:00 +32°C° 0 mm 2 mps 689 mmHg 22%
    21:00 +32°C° 0 mm 2 mps 689 mmHg 25%
    22:00 +31°C° 0 mm 2 mps 689 mmHg 27%
    23:00 +31°C° 0 mm 2 mps 689 mmHg 30%

    25 July, Wednesday

    Time Temperature Precipitation Wind Pressure Humidity
    00:00 +30°C° 0 mm 2 mps 689 mmHg 33%
    01:00 +29°C° 0 mm 2 mps 688 mmHg 37%
    02:00 +28°C° 0 mm 1 mps 688 mmHg 40%
    03:00 +28°C° 0 mm 1 mps 688 mmHg 41%
    04:00 +27°C° 0 mm 1 mps 688 mmHg 43%
    05:00 +27°C° 0 mm 1 mps 688 mmHg 44%
    06:00 +28°C° 0 mm 1 mps 689 mmHg 37%
    07:00 +30°C° 0 mm 2 mps 689 mmHg 31%
    08:00 +31°C° 0 mm 2 mps 690 mmHg 24%
    09:00 +34°C° 0 mm 2 mps 690 mmHg 21%
    10:00 +35°C° 0 mm 3 mps 690 mmHg 17%
    11:00 +37°C° 0 mm 3 mps 690 mmHg 14%
    12:00 +38°C° 0 mm 4 mps 690 mmHg 13%
    13:00 +40°C° 0 mm 4 mps 689 mmHg 12%
    14:00 +41°C° 0 mm 5 mps 689 mmHg 12%
    15:00 +40°C° 0 mm 5 mps 689 mmHg 12%
    16:00 +40°C° 0 mm 5 mps 689 mmHg 13%
    17:00 +40°C° 0 mm 6 mps 689 mmHg 13%
    18:00 +39°C° 0 mm 5 mps 689 mmHg 15%
    19:00 +36°C° 0 mm 4 mps 689 mmHg 17%
    20:00 +35°C° 0 mm 3 mps 689 mmHg 19%
    21:00 +34°C° 0 mm 3 mps 689 mmHg 21%
    22:00 +34°C° 0 mm 3 mps 689 mmHg 23%
    23:00 +32°C° 0 mm 2 mps 689 mmHg 24%
    Show more